Weather observations for the past three days for
South St. Paul Municipal-Richard E. Flemi
Imperial (Metric)
Date Time (cdt) Wind (mph) Vis. (mi.) Weather Sky Cond. Temperature (ºF) Relative Humidity Wind Chill (°F) Heat Index (°F) Pressure Precipitation (in)
Air Dwpt 6 hour altimeter (in) sea level (mb) 1 hr 3 hr 6 hr
Max. Min.
16 10:55 NW 9 10.00 Fair CLR 75.6 56.3 51% 78 29.89 0.0
16 10:35 N 6 10.00 Fair CLR 74.3 56.7 54% 29.89 0.0
16 10:15 N 7 10.00 Fair CLR 73.8 56.5 55% 29.89 0.0
16 09:55 N 6 10.00 Fair CLR 73 57 57% 29.89 0.0
16 09:35 N 6 10.00 Fair CLR 72.3 57.2 59% 29.88 0.0
16 09:15 N 7 10.00 Fair CLR 71.6 57.7 62% 29.88 0.0
16 08:55 N 6 10.00 Fair CLR 70.7 58.5 65% 29.88 0.0
16 08:35 N 6 10.00 Fair CLR 70 59.5 70% 29.88 0.0
16 08:15 N 5 10.00 Fair CLR 69.1 59.9 73% 29.87 0.0
16 07:55 N 6 10.00 Fair CLR 68.7 59.5 73% 29.87 0.0
16 07:35 NW 7 10.00 Fair CLR 67.6 59.5 75% 29.86 0.0
16 07:15 N 5 10.00 Fair CLR 67.1 59 75% 29.85 0.0
16 06:55 N 5 10.00 Fair CLR 66.4 59 72.5 65.3 77% 29.85 0.0
16 06:35 N 5 10.00 Fair CLR 65.8 59 79% 29.84 0.0
16 06:15 N 5 10.00 Fair CLR 65.5 58.6 79% 29.83 0.0
16 05:55 NW 5 10.00 Fair CLR 65.3 59 80% 29.83 0.0
16 05:35 N 6 10.00 Fair CLR 65.7 59 79% 29.82 0.0
16 05:15 N 6 10.00 Fair CLR 66.2 59 78% 29.81 0.0
16 04:55 N 6 10.00 Fair CLR 66.9 59 76% 29.81 0.0
16 04:35 N 6 10.00 Fair CLR 67.1 59.2 76% 29.81 0.0
16 04:15 N 7 10.00 Fair CLR 67.5 59.4 75% 29.81 0.0
16 03:55 N 6 10.00 Fair CLR 68 59.5 74% 29.81 0.0
16 03:35 N 7 10.00 Fair CLR 68 59.7 75% 29.8 0.0
16 03:15 NW 6 10.00 Fair CLR 68.9 59.9 73% 29.81 0.0
16 02:55 Calm 10.00 Fair CLR 68 59.9 75% 29.81 0.0
16 02:35 Calm 10.00 Fair CLR 69.3 59.4 71% 29.81 0.0
16 02:15 NW 3 10.00 Fair CLR 69.3 59.2 70% 29.8 0.0
16 01:55 Calm 10.00 Fair CLR 70.7 58.8 66% 29.8 0.0
16 01:35 N 3 10.00 Fair CLR 72 58.1 62% 29.8 0.0
16 01:15 NW 3 10.00 Fair CLR 72.3 59 63% 29.8 0.0
16 00:55 N 5 10.00 Fair CLR 72.9 59 82.9 72.9 62% 29.8 0.0
16 00:35 NW 6 10.00 Fair CLR 73 59.9 64% 29.8 0.0
16 00:15 NW 8 10.00 Fair CLR 73.8 59.9 62% 29.79 0.0
15 23:55 NW 6 10.00 Fair CLR 74.3 60.3 62% 29.78 0.0
15 23:35 NW 6 10.00 Fair CLR 74.8 60.1 60% 29.78 0.0
15 23:15 N 9 10.00 Fair CLR 75.4 60.8 61% 78 29.77 0.0
15 22:55 N 8 10.00 Fair CLR 76.1 61 60% 78 29.76 0.0
15 22:35 NW 9 10.00 Fair CLR 76.6 62.2 61% 78 29.75 0.0
15 22:15 N 12 G 16 10.00 Fair CLR 77.2 63.9 64% 79 29.75 0.0
15 21:55 N 7 10.00 Partly Cloudy SCT048 78.1 64 62% 80 29.74 0.0
15 21:35 N 6 10.00 Mostly Cloudy SCT042 BKN048 BKN065 78.8 64.6 62% 81 29.75 0.0
15 21:15 N 7 10.00 Mostly Cloudy BKN040 BKN050 BKN065 79.7 66.2 63% 82 29.74 0.0
15 20:55 N 9 10.00 Partly Cloudy SCT037 SCT046 79.9 65.8 62% 82 29.72 0.0
15 20:35 N 7 10.00 Partly Cloudy SCT037 SCT046 80.6 66.4 62% 83 29.71 0.0
15 20:15 NW 9 10.00 Fair CLR 81 66.9 62% 83 29.7 0.0
15 19:55 NW 7 10.00 Mostly Cloudy SCT039 SCT050 BKN090 81 67.3 63% 83 29.69 0.0
15 19:35 NW 9 10.00 Mostly Cloudy SCT039 BKN050 BKN055 82 68.2 63% 85 29.69 0.0
15 19:15 W 8 10.00 Partly Cloudy SCT039 SCT048 SCT055 82.9 68.5 62% 86 29.68 0.0
15 18:55 NW 13 10.00 Fair CLR 82.8 68.5 84.9 75.6 62% 86 29.68 0.0
15 18:35 NW 10 G 16 10.00 Partly Cloudy SCT034 SCT047 SCT060 82.2 68.7 64% 85 29.67 0.0
15 18:15 NW 9 10.00 Fair CLR 84.2 69.4 61% 88 29.67 0.0
15 17:55 NW 13 10.00 Fair CLR 84.4 69.6 61% 89 29.67 0.0
15 17:35 NW 9 G 16 10.00 Fair CLR 84.4 70.5 63% 89 29.68 0.0
15 17:15 NW 12 10.00 Partly Cloudy SCT037 SCT043 SCT050 84.2 70.5 64% 89 29.69 0.0
15 16:55 W 5 10.00 Mostly Cloudy SCT025 BKN033 BKN041 83.7 72.7 70% 90 29.7 0.0
15 16:35 W 10 10.00 Overcast SCT027 BKN036 OVC100 83.7 72.3 69% 89 29.71 0.0
15 16:15 W 8 10.00 Mostly Cloudy BKN025 BKN032 BKN040 83.1 73.2 72% 89 29.72 0.0
15 15:55 SW 9 10.00 Mostly Cloudy SCT028 BKN033 BKN042 82.8 72.1 70% 88 29.72 0.0
15 15:35 W 6 10.00 Overcast BKN028 BKN035 OVC050 82.4 71.4 70% 87 29.73 0.0
15 15:15 W 8 10.00 Partly Cloudy SCT055 82.2 70.3 67% 86 29.73 0.0
15 14:55 W 8 10.00 Fair CLR 82.2 70.3 67% 86 29.73 0.0
15 14:35 W 8 10.00 Fair CLR 81.3 69.8 68% 85 29.73 0.0
15 14:15 SW 7 10.00 Fair CLR 79.5 68.2 68% 82 29.72 0.0
15 13:55 SW 7 10.00 Fair CLR 77.7 67.6 71% 80 29.71 0.0
15 13:35 S 10 G 22 10.00 Fair CLR 76.6 67.5 73% 78 29.7 0.0
15 13:15 S 13 G 16 10.00 Fair CLR 76.1 67.8 76% 77 29.7 0.0
15 12:55 S 14 10.00 Fair CLR 75.4 68 75.4 69.1 78% 76 29.72 0.0 0.17
15 12:35 S 10 10.00 Partly Cloudy SCT075 SCT100 74.5 66.9 77% 29.72 0.0
15 12:15 S 7 10.00 Partly Cloudy SCT075 SCT100 74.3 66 75% 29.74 0.0
15 11:55 SW 7 10.00 Fair CLR 73.9 65.5 75% 29.75 0.0
15 11:35 S 7 10.00 Fair CLR 73.9 65.1 74% 29.76 0.0
15 11:15 S 8 10.00 Fair CLR 74.3 65.3 74% 29.76 0.0
15 10:55 S 10 10.00 Fair CLR 73.2 65.7 77% 29.76 0.0
15 10:35 S 10 10.00 Fair CLR 71.6 65.8 82% 29.78 0.0
15 10:15 S 7 10.00 Fair CLR 70.5 65.7 85% 29.77 0.0
15 09:55 S 8 G 18 10.00 Partly Cloudy SCT100 69.3 67.3 93% 29.78 0.0 0.07 0.17
15 09:35 S 14 G 17 5.00 Light Rain OVC110 70.7 66.6 87% 29.82 0.0 0.06
15 09:15 SW 12 G 16 5.00 Thunderstorm Rain in Vicinity SCT085 OVC100 71.6 68.7 91% 29.88 0.0 0.04
15 08:55 N 5 2.50 Rain OVC110 71.8 69.8 94% 29.89 0.0 0.09
15 08:35 NW 6 5.00 Light Rain OVC110 72 70.3 95% 29.9 0.0 0.03
15 08:15 NW 5 5.00 Light Rain BKN110 72.5 70 92% 29.88 0.0 0.01
15 07:55 N 9 7.00 Fair CLR 71.6 69.6 94% 29.83 0.0
15 07:35 SE 5 10.00 Light Rain SCT085 SCT120 71.1 69.8 96% 29.77 0.0
15 07:15 E 5 7.00 Fair CLR 71.2 69.6 95% 29.8 0.0
15 06:55 Calm 10.00 Fair CLR 71.1 69.3 73.4 69.8 94% 29.83 0.0
15 06:35 Calm 7.00 Fair CLR 70.7 69.3 95% 29.84 0.0
15 06:15 Calm 7.00 Fair CLR 70 69.3 98% 29.83 0.0
15 05:55 Calm 5.00 Fog/Mist CLR 70 69.3 98% 29.8 0.0
15 05:35 Calm 7.00 Fair CLR 70 69.1 97% 29.79 0.0
15 05:15 Calm 7.00 Fair CLR 70 69.1 97% 29.79 0.0
15 04:55 Calm 7.00 Fair CLR 69.8 68.9 97% 29.81 0.0
15 04:35 SW 3 7.00 Fair CLR 70 68.7 96% 29.81 0.0
15 04:15 Calm 10.00 Fair CLR 70.2 67.8 92% 29.8 0.0
15 03:55 Calm 10.00 Fair CLR 70.2 68 93% 29.82 0.0
15 03:35 Calm 10.00 Fair CLR 70 67.6 92% 29.83 0.0
15 03:15 Calm 10.00 Fair CLR 70 68 93% 29.83 0.0
15 02:55 Calm 10.00 Fair CLR 69.8 67.3 92% 29.83 0.0
15 02:35 Calm 10.00 Fair CLR 70.7 67.6 90% 29.83 0.0
15 02:15 Calm 10.00 Fair CLR 70.9 67.5 89% 29.84 0.0
15 01:55 Calm 10.00 Fair CLR 71.8 66.9 85% 29.84 0.0
15 01:35 Calm 10.00 Fair CLR 71.8 67.1 85% 29.85 0.0
15 01:15 Calm 10.00 Fair CLR 72.5 67.5 84% 29.85 0.0
15 00:55 Calm 10.00 Fair CLR 73.4 66.7 87.8 72.9 80% 29.85 0.0
15 00:35 Calm 10.00 Fair CLR 73.2 67.1 81% 29.86 0.0
15 00:15 Calm 10.00 Fair CLR 73.8 67.5 81% 29.86 0.0
14 23:55 Calm 10.00 Fair CLR 74.7 67.8 79% 29.85 0.0
14 23:35 Calm 10.00 Fair CLR 74.7 68 80% 29.85 0.0
14 23:15 Calm 10.00 Fair CLR 76.5 66.4 71% 78 29.85 0.0
14 22:55 Calm 10.00 Fair CLR 76.3 67.8 75% 78 29.85 0.0
14 22:35 Calm 10.00 Fair CLR 77 68.2 74% 79 29.85 0.0
14 22:15 Calm 10.00 Fair CLR 77.9 67.1 70% 80 29.85 0.0
14 21:55 Calm 10.00 Fair CLR 79.2 66.9 66% 81 29.84 0.0
14 21:35 Calm 10.00 Fair CLR 80.8 64.6 58% 82 29.84 0.0
14 21:15 Calm 10.00 Fair CLR 82.4 63 52% 84 29.84 0.0
14 20:55 NW 3 10.00 Fair CLR 83.3 63.1 51% 84 29.84 0.0
14 20:35 N 6 10.00 Partly Cloudy SCT050 84.2 64 51% 86 29.85 0.0
14 20:15 N 5 10.00 Partly Cloudy SCT050 84.9 65.3 52% 87 29.85 0.0
14 19:55 N 7 10.00 Fair CLR 86 64.9 49% 88 29.85 0.0
14 19:35 N 5 10.00 Partly Cloudy SCT050 86.5 65.8 50% 89 29.85 0.0
14 19:15 N 7 10.00 Mostly Cloudy BKN050 86.4 65.8 50% 89 29.85 0.0
14 18:55 N 7 10.00 Mostly Cloudy BKN050 87.8 65.1 88.7 82.2 47% 90 29.85 0.0
14 18:35 N 6 10.00 Mostly Cloudy BKN050 BKN060 88 66.7 49% 91 29.85 0.0
14 18:15 N 8 10.00 Mostly Cloudy BKN050 87.4 66.9 51% 90 29.85 0.0
14 17:55 NE 6 10.00 Mostly Cloudy BKN049 BKN060 86.9 67.5 52% 90 29.85 0.0
14 17:35 N 5 10.00 Mostly Cloudy BKN049 87.8 67.5 51% 91 29.85 0.0
14 17:15 NE 5 10.00 Partly Cloudy SCT049 87.4 66.4 50% 90 29.86 0.0
14 16:55 NE 5 10.00 Fair CLR 88.2 66 48% 91 29.85 0.0
14 16:35 N 3 10.00 Partly Cloudy SCT044 86.9 66.6 51% 90 29.85 0.0
14 16:15 N 6 10.00 Partly Cloudy SCT043 86.9 67.5 52% 90 29.85 0.0
14 15:55 Calm 10.00 Partly Cloudy SCT038 86.9 69.1 55% 91 29.86 0.0
14 15:35 Calm 10.00 Partly Cloudy SCT035 86 70 59% 91 29.86 0.0
14 15:15 Calm 10.00 Fair CLR 85.8 70.5 60% 91 29.85 0.0
14 14:35 Calm 10.00 Partly Cloudy SCT030 84.4 70.5 63% 89 29.85 0.0
14 14:15 N 7 10.00 Partly Cloudy SCT028 84.2 71.1 65% 89 29.85 0.0
14 13:55 Calm 10.00 Partly Cloudy SCT028 83.5 70.7 65% 88 29.85 0.0
14 13:35 Calm 10.00 Partly Cloudy SCT028 83.5 69.6 63% 87 29.86 0.0
14 13:15 Calm 10.00 Partly Cloudy SCT025 82.6 70 66% 87 29.87 0.0
14 12:55 NW 5 10.00 Mostly Cloudy BKN025 81.9 70 82.9 68.4 67% 86 29.87 0.0
14 12:35 Calm 10.00 Partly Cloudy SCT025 82.8 70.9 67% 87 29.88 0.0
14 12:15 N 5 10.00 Partly Cloudy SCT023 81.9 70.5 69% 86 29.88 0.0
14 11:55 Calm 10.00 Mostly Cloudy BKN023 80.8 71.1 72% 85 29.89 0.0
14 11:35 W 6 10.00 Overcast OVC021 80.4 70.9 73% 84 29.9 0.0
14 11:15 NW 3 10.00 Overcast OVC019 80.1 71.2 75% 84 29.89 0.0
14 10:55 SW 5 10.00 Mostly Cloudy BKN019 79.7 71.4 76% 83 29.89 0.0
14 10:35 SW 3 10.00 Mostly Cloudy BKN019 79.7 71.8 77% 83 29.89 0.0
14 10:15 SW 6 10.00 Overcast OVC019 78.8 70.5 76% 82 29.9 0.0
14 09:55 W 5 10.00 Mostly Cloudy BKN019 77.9 69.8 76% 80 29.9 0.0
14 09:35 SW 5 10.00 Partly Cloudy SCT021 76.8 68.7 76% 78 29.89 0.0
14 09:15 SW 5 10.00 Partly Cloudy SCT019 75.7 68 77% 77 29.9 0.0
14 08:55 W 5 10.00 Partly Cloudy SCT019 74.5 67.6 79% 29.91 0.0
14 08:35 SW 6 10.00 Fair CLR 72.5 67.1 83% 29.91 0.0
14 08:15 SW 7 10.00 Fair CLR 71.8 66.2 83% 29.9 0.0
14 07:55 SW 3 10.00 Fair CLR 70.9 66 85% 29.89 0.0
14 07:35 SW 3 7.00 Fair CLR 69.8 65.3 86% 29.88 0.0
14 07:15 Calm 10.00 Fair CLR 68.9 65.1 88% 29.89 0.0
14 06:55 Calm 10.00 Fair CLR 68.2 65.5 73.8 65.5 91% 29.89 0.0 0.47
14 06:35 Calm 10.00 Fair CLR 67.1 65.1 93% 29.88 0.0
14 06:15 Calm 10.00 Fair CLR 67.1 64.8 92% 29.89 0.0
14 05:55 Calm 10.00 Partly Cloudy SCT060 67.3 65.1 93% 29.9 0.0
14 05:35 S 3 10.00 Fair CLR 67.3 65.1 93% 29.9 0.0
14 05:15 S 9 10.00 Fair CLR 67.5 65.3 93% 29.9 0.0
14 04:55 S 8 10.00 Fair CLR 67.5 65.8 95% 29.9 0.0
14 04:35 S 7 10.00 Fair CLR 67.3 66.6 98% 29.89 0.0
14 04:15 S 7 10.00 Fair CLR 67.3 67.1 99% 29.88 0.0
14 03:55 S 8 10.00 Fair CLR 67.5 67.3 99% 29.86 0.0 0.47
14 03:35 S 7 10.00 Fair CLR 67.5 67.3 99% 29.85 0.0
14 03:15 S 5 10.00 Partly Cloudy SCT009 67.1 66.7 99% 29.85 0.0
14 02:55 S 5 10.00 Thunderstorm in Vicinity SCT009 66.4 66.2 99% 29.85 0.0
14 02:35 E 5 10.00 Thunderstorm in Vicinity CLR 65.8 65.3 98% 29.84 0.0
14 02:15 Calm 10.00 Thunderstorm in Vicinity SCT110 65.7 64.8 97% 29.83 0.0
14 01:55 E 10 5.00 Thunderstorm Light Rain SCT010 BKN065 OVC110 65.7 64.4 96% 29.87 0.0 0.47
14 01:35 N 23 G 47 2.50 Thunderstorm Heavy Rain and Breezy SCT006 BKN024 OVC047 70.2 64.9 84% 29.98 0.0 0.21
14 01:15 Calm 10.00 Thunderstorm SCT048 72.9 68.5 86% 29.9 0.0
14 00:55 Calm 10.00 Thunderstorm in Vicinity SCT037 SCT043 SCT050 72.9 68.4 80.6 72.9 86% 29.88 0.0
14 00:35 Calm 10.00 Thunderstorm BKN035 BKN044 OVC050 73.4 68.2 84% 29.88 0.0
14 00:15 N 6 10.00 Thunderstorm BKN035 BKN046 OVC110 73 68.9 87% 29.88 0.0
13 23:55 Calm 10.00 Thunderstorm BKN035 BKN041 BKN050 73.4 68.5 85% 29.89 0.0
13 23:35 Calm 10.00 Thunderstorm SCT035 SCT043 SCT050 73.4 68.2 84% 29.9 0.0
13 23:15 Calm 10.00 Partly Cloudy SCT035 SCT040 SCT055 73.4 67.6 82% 29.91 0.0
13 22:55 Calm 10.00 Mostly Cloudy SCT035 SCT040 BKN070 73.8 67.5 81% 29.92 0.0
13 22:35 SE 6 10.00 Fair CLR 74.3 67.8 80% 29.92 0.0
13 22:15 E 3 10.00 Fair CLR 75 69.1 82% 75 29.92 0.0
13 21:55 Calm 10.00 Fair CLR 75.2 69.3 82% 76 29.91 0.0
13 21:35 SE 3 10.00 Fair CLR 75.2 69.8 83% 75 29.9 0.0
13 21:15 SE 3 10.00 Fair CLR 76.1 70.7 83% 77 29.89 0.0
13 20:55 SE 5 10.00 Fair CLR 76.6 71.1 83% 78 29.89 0.0
13 20:35 Calm 10.00 Fair CLR 77.7 71.4 81% 80 29.89 0.0
13 20:15 Calm 10.00 Fair CLR 77.9 71.1 80% 80 29.9 0.0
13 19:55 SE 6 10.00 Fair CLR 78.4 71.2 79% 81 29.9 0.0
13 19:35 S 3 10.00 Fair CLR 79.9 70.7 74% 83 29.9 0.0
13 19:15 S 7 10.00 Fair CLR 80.1 70.3 72% 83 29.9 0.0
13 18:55 SE 3 10.00 Fair CLR 80.6 70.9 80.6 73 72% 84 29.9 0.0 0.34
13 18:35 Calm 10.00 Fair CLR 79.7 71.8 77% 83 29.9 0.0
13 18:15 SE 6 10.00 Partly Cloudy SCT036 78.8 72.1 80% 82 29.92 0.0
13 17:55 SE 7 10.00 Partly Cloudy SCT036 79.9 73.2 80% 84 29.94 0.0
13 17:35 SE 5 10.00 Thunderstorm in Vicinity CLR 80.1 74.5 83% 85 29.94 0.0
13 17:15 NE 5 10.00 Thunderstorm in Vicinity SCT011 79.7 75.2 86% 84 29.93 0.0
13 16:55 E 5 10.00 Partly Cloudy SCT030 SCT039 SCT050 77.7 75.2 92% 80 29.91 0.0
13 16:35 Calm 10.00 Partly Cloudy SCT032 77 74.3 91% 78 29.95 0.0
13 16:15 N 6 10.00 Thunderstorm in Vicinity CLR 76.3 74.5 94% 76 29.96 0.0
13 15:55 N 3 7.00 Fair CLR 75.6 74.7 97% 74 29.96 0.0 0.01 0.34
13 15:35 N 7 10.00 Partly Cloudy SCT021 SCT036 SCT050 75.7 75 98% 74 29.96 0.0 0.01
13 15:15 S 13 7.00 Thunderstorm Light Rain in Vicinity SCT028 BKN070 OVC095 74.7 74.3 99% 29.91 0.0
13 14:55 S 8 10.00 Thunderstorm Light Rain in Vicinity SCT070 SCT075 BKN110 74.5 73.8 98% 29.97 0.0 0.04
13 14:35 NW 7 10.00 Mostly Cloudy SCT034 SCT048 BKN070 74.3 73.4 97% 29.99 0.0 0.04
13 14:15 E 6 G 16 4.00 Thunderstorm Light Rain SCT022 BKN034 OVC070 73.8 72.5 96% 29.95 0.0 0.04
13 13:55 NE 6 G 13 2.00 Thunderstorm Heavy Rain OVC022 74.1 71.6 92% 30.04 0.0 0.22
13 13:35 NW 9 3.00 Rain SCT024 OVC090 77.4 71.8 83% 79 30.03 0.0 0.02
13 13:15 Calm 10.00 Thunderstorm in Vicinity SCT100 SCT120 77.9 70 77% 80 30 0.0
13 12:55 E 6 10.00 Partly Cloudy SCT090 SCT110 77.9 70.7 77.9 71.1 79% 80 29.98 0.0 0.08
13 12:35 Calm 10.00 Partly Cloudy SCT090 77.5 69.3 76% 79 30.02 0.0
13 12:15 S 6 10.00 Partly Cloudy SCT110 77.4 69.6 77% 79 30 0.0
13 11:55 SE 9 10.00 Partly Cloudy SCT110 76.1 70.2 82% 77 29.97 0.0
13 11:35 Calm 10.00 Fair CLR 76.5 70.2 81% 78 30 0.0
13 11:15 S 5 10.00 Fair CLR 75.6 70.9 85% 76 30 0.0
Date Time (cdt) Wind (mph) Vis. (mi.) Weather Sky Cond. Air Dwpt Max. Min. Relative Humidity Wind Chill (°F) Heat Index (°F) altimeter (in) sea level (mb) 1 hr 3 hr 6 hr
6 hour
Temperature (ºF) Pressure Precipitation (in)